Kodiak, AK

1:45 AM AKDT on June 25, 2017 (GMT -0800)
Kodiak

Weather History for PADQ - January, 2014

Change the Weather History Date:

Sunday, January 26, 2014

  Actual Average Record
Temperature  
Mean Temperature 43 °F 30 °F  
Max Temperature 43 °F 35 °F 45 °F (1991)
Min Temperature 42 °F 26 °F -2 °F (2012)
Degree Days  
Heating Degree Days 22 35  
Month to date heating degree days 740 898  
Since 1 July heating degree days 4187 4741  
Cooling Degree Days 0 0  
Month to date cooling degree days 0 0  
Year to date cooling degree days 0 0  
Moisture  
Dew Point 42 °F    
Average Humidity 0    
Maximum Humidity 0    
Minimum Humidity 0    
Precipitation  
Precipitation 0.83 in 0.26 in 2.24 in (1978)
Month to date precipitation 13.44 7.10  
Year to date precipitation 13.44 7.10  
Snow  
Snow 0.00 in 0.50 in 3.90 in (2004)
Month to date snowfall 5.1 10.7  
Since 1 July snowfall 24.0 32.0  
Snow Depth 0.00 in    
Sea Level Pressure  
Sea Level Pressure 29.65 in    
Wind  
Wind Speed 18 mph (ENE)    
Max Wind Speed 28 mph    
Max Gust Speed 38 mph    
Visibility 3 miles    
Events Rain    
T = Trace of Precipitation, MM = Missing Value Source: NWS Daily Summary

Daily Weather History Graph

Daily Weather History Graph

Search for Another Location

Airport or City:

Trip Planner

Search our weather history database for the weather conditions in past years. The results will help you decide how hot, cold, wet, or windy it might be!

Date:

Astronomy

Jan. 26, 2014 Rise Set
Actual Time 9:23 AM AKST 5:22 PM AKST
Civil Twilight 8:38 AM AKST 6:07 PM AKST
Nautical Twilight 7:50 AM AKST 6:55 PM AKST
Astronomical Twilight 7:04 AM AKST 7:41 PM AKST
Moon 5:19 AM AKST (1/26) 1:12 PM AKST (1/26)
Length of Visible Light 9h 28m
Length of Day
7h 58m
Waning Crescent, 22% of the Moon is Illuminated
Jan 26
Waning Crescent
Jan 30
New
Feb 6
First Quarter
Feb 14
Full
Feb 22
Last Quarter

Hourly Weather History & Observations

Time (AKST) Temp. Windchill Dew Point Humidity Pressure Visibility Wind Dir Wind Speed Gust Speed Precip Events Conditions
12:17 AM 42.8 °F 33.8 °F 42.8 °F 100% 29.62 in 4.0 mi ENE 21.9 mph 28.8 mph 0.00 in   Overcast
12:30 AM 42.8 °F 34.0 °F 42.8 °F 100% 29.62 in 1.8 mi ENE 20.7 mph 28.8 mph 0.00 in Rain Light Rain
12:53 AM 42.1 °F 32.3 °F 42.1 °F 100% 29.61 in 2.5 mi ENE 24.2 mph 29.9 mph 0.11 in Rain Heavy Rain
1:53 AM 43.0 °F 34.8 °F 43.0 °F 100% 29.60 in 3.0 mi ENE 18.4 mph 31.1 mph 0.20 in Rain Rain
3:26 AM 42.8 °F 33.5 °F 42.8 °F 100% 29.58 in 2.0 mi East 23.0 mph - 0.05 in Rain Light Rain
3:37 AM 42.8 °F 33.1 °F 42.8 °F 100% 29.59 in 1.5 mi East 25.3 mph 31.1 mph 0.07 in Rain Rain
3:53 AM 43.0 °F 34.8 °F 43.0 °F 100% 29.60 in 2.5 mi East 18.4 mph - 0.11 in Rain Light Rain
4:15 AM 42.8 °F 35.8 °F 42.8 °F 100% 29.60 in 2.0 mi ESE 13.8 mph - 0.03 in Rain Light Rain
4:31 AM 42.8 °F 34.3 °F 42.8 °F 100% 29.61 in 1.8 mi ESE 19.6 mph 23.0 mph 0.06 in Rain Light Rain
4:53 AM 43.0 °F 35.4 °F 43.0 °F 100% 29.62 in 1.8 mi East 16.1 mph - 0.07 in Rain Light Rain
5:31 AM 42.8 °F 35.1 °F 42.8 °F 100% 29.63 in 2.0 mi ESE 16.1 mph - 0.03 in Rain Light Rain
5:53 AM 43.0 °F 35.7 °F 43.0 °F 100% 29.65 in 2.0 mi East 15.0 mph - 0.03 in   Overcast
6:53 AM 43.0 °F 34.2 °F 42.1 °F 97% 29.64 in 2.5 mi East 20.7 mph - N/A   Overcast
7:27 AM 42.8 °F 34.3 °F 42.8 °F 100% 29.65 in 3.0 mi ESE 19.6 mph - N/A   Overcast
7:37 AM 42.8 °F 34.0 °F 42.8 °F 100% 29.66 in 2.5 mi ESE 20.7 mph - 0.00 in Rain Light Rain
7:53 AM 43.0 °F 35.1 °F 42.1 °F 97% 29.67 in 2.5 mi ESE 17.3 mph - 0.00 in Rain Light Rain
8:19 AM 42.8 °F 34.5 °F 42.8 °F 100% 29.68 in 3.0 mi ESE 18.4 mph - 0.00 in Rain Light Rain
8:53 AM 42.1 °F 34.9 °F 42.1 °F 100% 29.70 in 3.0 mi East 13.8 mph - 0.00 in Rain Light Rain
8:55 AM 42.8 °F 35.8 °F 42.8 °F 100% 29.70 in 2.0 mi East 13.8 mph - 0.00 in Rain Light Rain
9:36 AM 42.8 °F 35.8 °F 42.8 °F 100% 29.72 in 1.0 mi East 13.8 mph - 0.00 in Rain Light Rain
9:53 AM 42.1 °F 34.5 °F 42.1 °F 100% 29.73 in 1.0 mi East 15.0 mph - 0.00 in Rain Light Rain
10:53 AM 42.1 °F 36.6 °F 42.1 °F 100% 29.75 in 0.5 mi ENE 9.2 mph - 0.00 in Rain Light Rain
11:46 AM 42.8 °F 35.8 °F 42.8 °F 100% 29.75 in 3.0 mi ENE 13.8 mph - 0.02 in Rain Light Rain
11:53 AM 43.0 °F 36.4 °F 42.1 °F 97% 29.76 in 3.0 mi ENE 12.7 mph - 0.02 in Rain Light Rain
12:53 PM 43.0 °F 36.8 °F 42.1 °F 97% 29.75 in 3.0 mi ENE 11.5 mph - 0.01 in Rain Light Rain
1:53 PM 42.1 °F 37.1 °F 42.1 °F 100% 29.74 in 3.0 mi ENE 8.1 mph - 0.02 in Rain Light Rain
2:16 PM 42.8 °F 36.2 °F 42.8 °F 100% 29.74 in 1.0 mi ENE 12.7 mph - 0.00 in Rain Light Rain
2:53 PM 42.1 °F 33.1 °F 42.1 °F 100% 29.72 in 2.0 mi NE 20.7 mph - 0.01 in Rain Light Rain
3:53 PM 42.1 °F 33.9 °F 42.1 °F 100% 29.70 in 2.0 mi NE 17.3 mph 26.5 mph 0.01 in Rain Light Rain
4:53 PM 42.1 °F 33.3 °F 42.1 °F 100% 29.68 in 2.0 mi NE 19.6 mph - 0.01 in Rain Light Rain
5:00 PM 42.8 °F 33.8 °F 42.8 °F 100% 29.68 in 1.0 mi NE 21.9 mph - 0.00 in Rain Light Rain
5:53 PM 42.1 °F 32.6 °F - N/A% 29.65 in 1.0 mi NE 23.0 mph - 0.01 in Rain Light Rain
6:53 PM 42.1 °F 32.3 °F 41.0 °F 96% 29.63 in 1.0 mi NE 24.2 mph 28.8 mph 0.01 in Rain Light Rain
7:40 PM 42.8 °F 33.8 °F 41.0 °F 93% 29.62 in 1.0 mi NE 21.9 mph 31.1 mph 0.01 in Rain Light Rain
7:53 PM 42.1 °F 33.3 °F 41.0 °F 96% 29.62 in 1.0 mi NE 19.6 mph - 0.01 in Rain Light Rain
8:10 PM 42.8 °F 34.8 °F 42.8 °F 100% 29.61 in 4.0 mi ENE 17.3 mph 25.3 mph 0.01 in Rain Light Rain
8:53 PM 43.0 °F 34.0 °F 42.1 °F 97% 29.62 in 7.0 mi ENE 21.9 mph 35.7 mph 0.01 in   Overcast
9:53 PM 43.0 °F 34.5 °F 42.1 °F 97% 29.60 in 8.0 mi ENE 19.6 mph 27.6 mph N/A   Overcast
10:17 PM 42.8 °F 34.3 °F 39.2 °F 87% 29.59 in 7.0 mi ENE 19.6 mph 29.9 mph N/A   Overcast
10:53 PM 42.1 °F 33.3 °F 39.9 °F 92% 29.58 in 6.0 mi ENE 19.6 mph 31.1 mph N/A   Overcast
11:53 PM 43.0 °F 34.5 °F 39.9 °F 89% 29.55 in 6.0 mi ENE 19.6 mph - N/A   Overcast